Showing default

USA 60, 20682

Orbit data source: Space-Track

USA 60, 20682 is an American payload satellite in LEO that was launched on Fri, 08 Jun 1990 UTC via a TITAN 405A launch vehicle from the Air Force Eastern Test Range (AFETR). Payloads include a variety of satellites, spacecraft, and rockets equipped with specific instruments for various scientific and technological missions. These include communications satellites like Starlink; space stations such as the ISS; scientific satellites like the Hubble; Earth observation satellites from companies like Planet Labs, Umbra, and HawkEye 360; GPS; miniature CubeSats for education and research; and military/defense satellites.

Loading next visibility...
USA 60 details
Identifier
20682, 1990-050B
Orbit
LEO
Last TLE update15 hours ago
Origin
Flag of USNRO/NRL (US)
ManufacturerNRL
MissionDefense Sigint
Bus & MotorNOSS B SSU, Unknown motor
Mass~400 kg wet, ~400 kg dry
Launch date (UTC)
1990-06-08 (35 years ago)
Launch vehicle
TITAN 405A
Launch site
Air Force Eastern Test Range (AFETR)
Object type
Payload
Rocket body
Debris
Shape & HBRCyl, 1 m
Radar Cross Section1.178 m², Large (>1 m²)

Expand to show TLE details & history

TLE from 15 hours ago
0 USA 60
1 20682U 90050B   25014.85538835  .00005966  00000-0  44958-3 0  9998
2 20682  63.2955 164.1230 0900184  72.8836 296.8696 13.57260562 33260
Epoch: 2025-01-14T20:31Z
Definitive object data (Epoch: 2025-01-14T20:31:45.553Z)
Latitude-0.00004°
Longitude101.62708°
Altitude796.086 km
Speed7.581 km/s
True Right ascension10h 56m 29s
True Declination0° 00' 00"
Sunlit
Object was in full shadow at TLE epoch
Visualization TLE readout
Latitude-45.49709°
Longitude-49.44153°
Altitude1,681.59 km
Speed6.733 km/s
Apparent Right ascension00h 39m 45s
Apparent Declination-42° 54' 44"
Sunlit
Object is in daylight
Visualization observer readout
Local Sidereal Time12:25:21
Azimuth220.829° SW
Elevation-85.969°
Doppler factor1
Orbital elements
Apogee altitude1,712.658 km
Perigee altitude376.313 km
Semi-major axis7,422.623 km
Eccentricity0.0900184
Inclination63.2955°
RAAN164.123°
Arg. of periapsis72.8836°
True anomaly287.22208°
Mean anomaly296.8696°
Eccentric anomaly292.09055°
Mean motion3.39396 °/min
BSTAR0.00044958
Orbital period106.07 mins
Loading maneuver chart data...
Loading historical data...
Loading historical data...
Loading historical data...
Loading historical data...
Loading historical data...
Loading historical data...
Loading historical data...

USA 60 Visibility forecast

Observer location: undefined°, undefined

Span
Click to sort rows by Start time (UTC) header in descending order
Start Az.
Max El. time (UTC)
Max El. Az.
Max El.
End time (UTC)
End Az.
4 mins2025-01-15 12:38:06.763Z266.58° W2025-01-15 12:40:06.763Z313.047° NW20.122°2025-01-15 12:42:06.763Z359.276° N
7 mins2025-01-15 20:02:06.763Z342.522° N2025-01-15 20:04:06.763Z31.065° NE39.925°2025-01-15 20:09:06.763Z133.489° SE
5 mins2025-01-15 21:52:06.763Z265.416° W2025-01-15 21:54:06.763Z238.346° WSW15.199°2025-01-15 21:57:06.763Z207.622° SW
4 mins2025-01-16 11:36:06.763Z218.592° SW2025-01-16 11:38:06.763Z0.32° NNE43.886°2025-01-16 11:40:06.763Z30.775° NE
|